2000 LM                                                                     

Epoch 2000 Sept. 13.0 TT = JDT 2451800.5                Nakano

M  20.93695              (2000.0)            P               Q

n   0.44042164     Peri.   66.86966     +0.57030807     +0.77071974

a   1.7108960      Node   241.00498     -0.82087291     +0.52198864

e   0.2620184      Incl.   18.95743     -0.03027172     +0.36540243

P   2.24           H   16.9           G   0.15           U   6

Residuals in seconds of arc 

000601 704  0.1+  0.2+    000608 610  0.1+  0.2+    000621 118  0.0   0.1-  

000601 704  0.0   0.3-    000609 611  0.7-  0.3+    000621 118  0.5+  0.1+  

000601 704  0.3-  0.1-    000609 611  0.2-  0.0     000621 118  0.3-  0.8-  

000601 704  0.1+  0.2+    000609 540  0.4+  1.2-    000622 610  0.1+  0.3+  

000601 704  0.4-  0.2+    000609 540  0.1-  0.0     000622 610  0.0   0.2+  

000601 557  0.3-  0.1+    000609 540  0.4+  0.3+    000622 610  0.0   0.1-  

000601 557  0.2-  0.0     000609 540  0.1-  0.1+    000622 118  0.7+  0.1-  

000601 046  0.1-  0.8+    000609 151  1.1-  1.9-    000622 118  0.0   0.4+  

000601 557  0.0   0.3+    000609 151 (3.4+  4.5+)   000622 118  0.2-  0.1-  

000601 046  0.4-  0.2+    000609 151  0.8-  1.7+    000624 704  0.5-  0.2-  

000601 557  0.0   0.1+    000609 046  0.2+  0.0     000624 704  0.5-  0.2+  

000601 046  0.1+  0.6+    000609 151 (4.5-  1.2+)   000624 704  0.2+  0.4+  

000601 046  0.2-  0.2+    000609 046  0.0   0.1-    000624 704  0.3-  0.0   

000601 557  0.1-  0.2+    000609 046  0.0   0.1-    000624 704  0.3-  0.3-  

000601 046  0.1+  0.3+    000609 046  0.2-  0.0     000625 860  0.8+  0.0   

000602 610  0.7+  0.2+    000609 046  0.0   0.3-    000625 860  0.5+  1.5+  

000602 610  0.5+  0.3+    000609 151  0.5-  1.1+    000625 860  1.6-  0.2-  

000602 610  0.2+  0.4+    000610 118  0.4+  0.5-    000626 610  0.6+  0.1-  

000602 587  0.8+  0.6+    000610 118  0.1+  0.5-    000626 610  0.4+  0.1-  

000602 587  0.2+  0.8+    000610 118  0.3+  0.4-    000626 610  0.0   0.0   

000602 163  0.2+  1.0-    000611 704  1.8-  0.1+    000626 610  0.2-  0.0   

000602 163  0.2-  0.7-    000611 704  0.1-  0.0     000626 118  0.1-  0.1+  

000602 163  0.4+  0.2-    000611 704  0.2-  0.3+    000627 118  0.5+  0.7+  

000602 163  0.4-  0.1-    000611 704  0.2-  0.1-    000627 118  0.5+  0.0   

000602 163  0.1-  0.4-    000611 704  0.5-  0.4-    000627 046  0.3-  0.0   

000602 163  0.2-  0.9-    000612 704  0.1+  0.1-    000627 046  0.0   0.1-  

000603 108  0.1+  0.5-    000612 704  0.2+  0.1-    000627 046  0.2-  0.0   

000603 611  0.5+  0.0     000612 704  0.4+  0.1-    000627 046  0.0   0.2+  

000603 611  0.2+  0.6+    000612 704  0.5-  0.4-    000628 151  0.5-  0.3-  

000603 108 (2.4+  1.9-)   000612 413  0.1+  0.3+    000628 151  0.1-  0.1+  

000603 611  0.0   0.5+    000612 413  0.0   0.3-    000628 151  1.2+  1.8-  

000603 118  0.7-  0.6-    000612 413  0.0   0.0     000628 151  0.2-  0.9-  

000603 118  0.6+  0.7-    000615 413  0.0   0.3-    000628 151  1.0-  1.2+  

000603 118  0.7+  0.0     000615 413  0.1+  0.3-    000630 118  0.2-  0.1-  

000604 670  0.3-  0.3-    000617 046  0.4-  0.2-    000630 118  0.3-  0.2+  

000604 670  0.4-  0.1+    000617 046  0.5-  0.1+    000701 642  0.5+  1.2-  

000604 402  0.1-  0.2-    000617 046  0.5-  0.0     000701 642 (2.6+  4.5+) 

000604 402  0.0   0.5-    000617 046  0.1-  0.1+    000703 670  0.1+  0.2-  

000604 402  0.4-  0.1+    000619 610  1.0+  0.1+    000703 670  0.3-  0.3+  

000608 557  0.1+  0.0     000619 610  1.1+  0.3+    000703 670  0.6-  0.0   

000608 557  0.0   0.1+    000619 610  1.6+  0.6+    000703 402  0.3+  0.1-  

000608 610  1.1+  0.5+    000620 587  0.3-  0.3+    000703 402  0.0   0.5+  

000608 610  0.6+  0.3+    000620 587  0.2+  0.8+    000703 402  0.1-  0.1-  

 

NAKANO

         **** Don't distribute anyone except personal use only ****

                (C) Copyright 2000 OAA/ComputingSection

write mail from CFAD0::NAKANO on 2000-07-06 05:36:17(JST).



2000 LM   

Epoch 2000 June 5.0 TT = JDT 2451700.5                  Nakano

M 336.25256              (2000.0)            P               Q

n   0.44804626     Peri.   67.42768     +0.57605541     +0.76773824

a   1.6914305      Node   240.80340     -0.81683663     +0.52780706

e   0.2557947      Incl.   18.75016     -0.03062804     +0.36331489

P   2.20           H   16.7           G   0.15           U   *

Residuals in seconds of arc 

000601 704  0.2+  0.1-    000601 557  0.1-  0.1+    000603 108  0.0   0.5-  

000601 704  0.1+  0.5-    000601 046  0.0   0.2+    000603 611  0.4+  0.0   

000601 704  0.2-  0.4-    000602 610  0.7+  0.1+    000603 611  0.1+  0.7+  

000601 704  0.2+  0.0     000602 610  0.6+  0.2+    000603 108 (2.3+  1.8-) 

000601 704  0.3-  0.1-    000602 610  0.3+  0.3+    000603 611  0.1-  0.6+  

000601 557  0.4-  0.0     000602 587  0.6+  0.7+    000603 118  0.7-  0.5-  

000601 557  0.3-  0.1-    000602 587  0.1+  0.8+    000603 118  0.5+  0.7-  

000601 046  0.2-  0.7+    000602 163  0.1+  0.9-    000603 118  0.6+  0.1+  

000601 557  0.0   0.2+    000602 163  0.4-  0.6-    000604 670  0.1-  0.1-  

000601 046  0.4-  0.1+    000602 163  0.2+  0.1-    000604 670  0.3-  0.3+  

000601 557  0.1-  0.0     000602 163  0.5-  0.0     000604 402  0.1+  0.1+  

000601 046  0.1+  0.5+    000602 163  0.2-  0.3-    000604 402  0.2+  0.3-  

000601 046  0.2-  0.1+    000602 163  0.3-  0.8-    000604 402  0.2-  0.3+  

  

NAKANO

         **** Don't distribute anyone except personal use only ****

                (C) Copyright 2000 OAA/ComputingSection

write mail from CFAD0::NAKANO on 2000-06-08 05:16:32(JST).

 



–ß‚è‚Ü‚·B